GALAXY 36 (G-36)

Last updated on Wed Sep 09 2026 00:03:03 GMT+0000 (Coordinated Universal Time)

1 54742U 22170B 26251.46919777 -.00000206 00000+0 00000+0 0 9997 2 54742 0.0242 207.2309 0001881 282.0367 298.1789 1.00270386 13613
UTC large
Height (km)
Speed (km/s)
/
Latitude / Longitude
Inclination (degrees)
Orbital Period (minutes)
Azimuth
Elevation
Range (km)
Doppler Factor

Next 0 passes for location: London (51.5072 / 0.1276)

No passes found over London.
GALAXY 36 (G-36)